West Vancouver, British Columbia

9:25 PM PST on November 18, 2017 (GMT -0800)
West Vancouver

Weather History for CWWA - February, 2013

Change the Weather History Date:

Friday, February 1, 2013

  Actual Average Record
Temperature  
Mean Temperature 43 °F -  
Max Temperature 48 °F - - ()
Min Temperature 38 °F - - ()
Degree Days  
Heating Degree Days 22    
Moisture  
Dew Point 40 °F    
Average Humidity 93    
Maximum Humidity 97    
Minimum Humidity 78    
Precipitation  
Precipitation 0.01 in - - ()
Sea Level Pressure  
Sea Level Pressure 30.39 in    
Wind  
Wind Speed 1 mph ()    
Max Wind Speed 4 mph    
Max Gust Speed -    
T = Trace of Precipitation, MM = Missing Value Source: Averaged Metar Reports

Daily Weather History Graph

Daily Weather History Graph

Search for Another Location

Airport or City:

Trip Planner

Search our weather history database for the weather conditions in past years. The results will help you decide how hot, cold, wet, or windy it might be!

Date:

Astronomy

Feb. 01, 2013 Rise Set
Actual Time 7:43 AM PST 5:09 PM PST
Civil Twilight 7:09 AM PST 5:43 PM PST
Nautical Twilight 6:31 AM PST 6:22 PM PST
Astronomical Twilight 5:53 AM PST 6:59 PM PST
Moon No Moon Rise 9:43 AM PST (2/1)
Length of Visible Light 10h 34m
Length of Day
9h 26m
Waning Gibbous, 69% of the Moon is Illuminated
Feb 1
Waning Gibbous
Feb 3
Last Quarter
Feb 9
New
Feb 17
First Quarter
Feb 25
Full

Hourly Weather History & Observations

Time (PST) Temp. Windchill Dew Point Humidity Pressure Visibility Wind Dir Wind Speed Gust Speed Precip Events Conditions
12:00 AM 41.4 °F - 40.3 °F 96% 30.32 in - North 1.2 mph - N/A   Unknown
1:00 AM 41.5 °F - 40.5 °F 96% 30.33 in - Calm Calm - N/A   Unknown
2:00 AM 41.7 °F - 40.6 °F 96% 30.34 in - Calm Calm - N/A   Unknown
3:00 AM 41.0 °F - 39.9 °F 96% 30.35 in - Calm Calm - N/A   Unknown
4:00 AM 41 °F - 40 °F 96% 30.36 in - NNE 1.2 mph - -  
4:00 AM 41.4 °F - 40.3 °F 96% 30.36 in - NNE 1.2 mph - N/A   Unknown
5:00 AM 41.4 °F - 40.3 °F 96% 30.36 in - Calm Calm - N/A   Unknown
6:00 AM 41.2 °F - 40.1 °F 96% 30.36 in - Calm Calm - N/A   Unknown
7:00 AM 41.5 °F - 40.6 °F 97% 30.37 in - Calm Calm - N/A   Unknown
8:00 AM 41.5 °F - 40.6 °F 97% 30.38 in - Calm Calm - N/A   Unknown
9:00 AM 41.5 °F - 40.6 °F 97% 30.40 in - Calm Calm - 0.01 in   Unknown
10:00 AM 42 °F - 41 °F 97% 30.41 in - Calm Calm - -  
10:00 AM 42.3 °F - 41.4 °F 97% 30.41 in - Calm Calm - N/A   Unknown
11:00 AM 43.0 °F - 42.1 °F 97% 30.42 in - Calm Calm - N/A   Unknown
12:00 PM 43.7 °F - 42.3 °F 95% 30.43 in - South 1.2 mph - N/A   Unknown
1:00 PM 45.5 °F - 42.4 °F 89% 30.41 in - SSE 1.2 mph - N/A   Unknown
2:00 PM 45.5 °F - 42.6 °F 90% 30.41 in - SSW 1.2 mph - N/A   Unknown
3:00 PM 48.2 °F - 42.3 °F 80% 30.40 in - SE 1.2 mph - N/A   Unknown
4:00 PM 46 °F - 41 °F 78% 30.40 in - SSW 1.2 mph - -  
4:00 PM 45.9 °F - 41.4 °F 84% 30.40 in - SSW 1.2 mph - N/A   Unknown
5:00 PM 43.9 °F - 39.6 °F 85% 30.40 in - Calm Calm - N/A   Unknown
6:00 PM 40.8 °F - 38.7 °F 92% 30.41 in - NNE 2.3 mph - N/A   Unknown
7:00 PM 40.1 °F 38.0 °F 37.6 °F 91% 30.41 in - North 3.5 mph - N/A   Unknown
8:00 PM 39.9 °F - 37.4 °F 91% 30.41 in - North 2.3 mph - N/A   Unknown
9:00 PM 39.6 °F - 36.9 °F 90% 30.41 in - Calm Calm - N/A   Unknown
10:00 PM 38 °F - 37 °F 93% 30.41 in - Calm Calm - -  
10:00 PM 38.5 °F - 36.7 °F 93% 30.41 in - Calm Calm - N/A   Unknown
11:00 PM 38.7 °F - 37.0 °F 94% 30.42 in - NNE 1.2 mph - N/A   Unknown